FOX-1CLIFF (AO-95) (43770 NORAD) Tracking and Keplerian Element Data

This shows tracking and keplerian element data for the satellite.

Feedback or suggestion? Click here.




ElementValue
Catalog43770
NameFOX-1CLIFF (AO-95)
Epoch Orbit719
Epoch Day20.88626901
Epoch Year2019
RAAN94.5393
Inclination97.7632
Eccentricity0.0016147
Argument of Perigee108.7354
Mean Anonmoly251.562
Mean Motion14.94662197
Decay Rate5.16E-06
L11 43770U 18099N 19020.88626901 .00000516 00000-0 52848-4 0 9993
L22 43770 97.7632 94.5393 0016147 108.7354 251.5620 14.94662197 7194

Live tracking and technical data element details for FOX-1CLIFF (AO-95) (NORAD 43770). FOX-1CLIFF (AO-95) can be tracked NOW for your location showing map with azimuth and elevation plus other details from your city location.

Track the satellite on the map from your city or location and see movement details for azimuth, elevation, latitude, longitude, range, height, and movement on the map or in text.







IsCatalogInMostPopularTable: catalog: 43770, numindb: 20
Update: records affected: 1



GetName: 43770 FOX-1CLIFF (AO-95)

Hit Count: updated at: Wed, 23 Jan 2019 03:33:07 GMT